Regional Weather Roundup
Issued by NWS Goodland, KS

Home | Current Version | Previous Version | Graphics & Text | Print | Product List | Glossary On
Versions: 1 2 3 4 5 6 7 8 9 10 11 12 13 14 15 16 17 18 19 20 21 22 23 24 25 26 27 28 29 30 31 32 33 34 35 36 37 38 39 40 41 42 43 44 45 46 47 48 49 50
000
ASUS43 KGLD 272259
RWRGLD

GOODLAND FORECAST AREA HOURLY WEATHER ROUNDUP
NATIONAL WEATHER SERVICE GOODLAND KS
500 PM MDT WED AUG 27 2014

...OFFICIAL OBSERVATIONS...

CITY           SKY/WX    TMP DP  RH WIND       PRES   REMARKS
GOODLAND KS    PTSUNNY   78  65  63 S10       30.02F
HILL CITY KS   LGT RAIN  70  68  93 E14       30.01S
IMPERIAL NEB   PTSUNNY   79  64  60 SE15      29.99F
MCCOOK NEB     PTSUNNY   73  68  84 SE18      30.02F
AKRON CO       PTSUNNY   78  60  53 VRB7      30.03F
BURLINGTON CO  MOSUNNY   80  61  52 S9        30.02F
LIMON CO       MOSUNNY   79  53  40 E6        30.07F
$$

...UNOFFICIAL OBSERVATIONS...

CITY           SKY/WX    TMP DP  RH WIND       PRES   REMARKS
COLBY KS       CLOUDY    73  70  88 E15G22    30.03R
GOVE KS          N/A     77  32  19 CALM        N/A
NORTON KS      LGT RAIN  68  64  88 E9        30.03F
SHARON SPRINGS   N/A     82  67  59 S12         N/A
WAKEENEY KS      N/A     77  66  70 MISG        N/A
KIT CARSON CO    N/A     82  61  48 MISG        N/A
YUMA CO          N/A     80  62  53 E10         N/A
$$


USA.gov is the U.S. government's official web portal to all federal, state and local government web resources and services.